TimePST,TemperatureF,Dew PointF,Humidity,Sea Level PressureIn,VisibilityMPH,Wind Direction,Wind SpeedMPH,Gust SpeedMPH,PrecipitationIn,Events,Conditions,WindDirDegrees,DateUTC
12:15 AM,32.0,32.0,100,29.95,10.0,Calm,Calm,-,N/A,,Overcast,0,2013-01-26 08:15:00
12:35 AM,32.0,32.0,100,29.94,10.0,Calm,Calm,-,N/A,,Mostly Cloudy,0,2013-01-26 08:35:00
12:55 AM,32.0,32.0,100,29.94,10.0,Calm,Calm,-,N/A,,Mostly Cloudy,0,2013-01-26 08:55:00
1:15 AM,32.0,32.0,100,29.93,9.0,SW,3.5,-,N/A,,Mostly Cloudy,230,2013-01-26 09:15:00
1:35 AM,35.6,35.6,100,29.93,5.0,SW,3.5,-,N/A,,Overcast,220,2013-01-26 09:35:00
1:55 AM,37.4,37.4,100,29.93,5.0,South,4.6,-,N/A,,Overcast,180,2013-01-26 09:55:00
2:15 AM,39.2,39.2,100,29.93,4.0,South,8.1,-,0.01,,Overcast,190,2013-01-26 10:15:00
2:35 AM,41.0,39.2,93,29.93,5.0,SSW,9.2,-,0.05,Rain,Rain,200,2013-01-26 10:35:00
2:55 AM,41.0,39.2,93,29.91,7.0,South,6.9,-,0.06,,Overcast,190,2013-01-26 10:55:00
3:15 AM,41.0,39.2,93,29.91,10.0,SSW,8.1,-,N/A,,Overcast,200,2013-01-26 11:15:00
3:35 AM,41.0,39.2,93,29.92,10.0,SSW,9.2,-,N/A,,Overcast,200,2013-01-26 11:35:00
3:55 AM,41.0,39.2,93,29.92,10.0,SSW,10.4,16.1,0.01,,Overcast,210,2013-01-26 11:55:00
4:15 AM,41.0,39.2,93,29.92,10.0,SSW,5.8,-,N/A,,Overcast,210,2013-01-26 12:15:00
4:35 AM,41.0,39.2,93,29.91,10.0,South,6.9,-,N/A,,Overcast,190,2013-01-26 12:35:00
4:55 AM,41.0,39.2,93,29.91,10.0,South,8.1,-,N/A,,Overcast,180,2013-01-26 12:55:00
5:15 AM,41.0,37.4,87,29.91,10.0,South,6.9,-,N/A,,Mostly Cloudy,190,2013-01-26 13:15:00
5:35 AM,41.0,37.4,87,29.92,10.0,SSW,6.9,-,N/A,,Overcast,200,2013-01-26 13:35:00
5:55 AM,41.0,39.2,93,29.92,10.0,South,8.1,-,N/A,,Mostly Cloudy,190,2013-01-26 13:55:00
6:15 AM,41.0,39.2,93,29.92,10.0,South,9.2,16.1,N/A,,Overcast,190,2013-01-26 14:15:00
6:35 AM,41.0,39.2,93,29.93,10.0,South,9.2,-,N/A,,Overcast,190,2013-01-26 14:35:00
6:55 AM,41.0,39.2,93,29.93,10.0,South,10.4,-,N/A,,Overcast,190,2013-01-26 14:55:00
7:15 AM,41.0,39.2,93,29.94,10.0,South,6.9,-,N/A,,Overcast,190,2013-01-26 15:15:00
7:35 AM,41.0,39.2,93,29.94,10.0,South,8.1,-,N/A,,Overcast,180,2013-01-26 15:35:00
7:55 AM,41.0,39.2,93,29.95,10.0,South,8.1,-,N/A,,Overcast,190,2013-01-26 15:55:00
8:15 AM,41.0,39.2,93,29.95,10.0,South,9.2,16.1,N/A,,Mostly Cloudy,190,2013-01-26 16:15:00
8:35 AM,41.0,39.2,93,29.95,10.0,South,9.2,-,N/A,,Mostly Cloudy,180,2013-01-26 16:35:00
8:55 AM,41.0,39.2,93,29.96,9.0,South,11.5,16.1,N/A,,Scattered Clouds,170,2013-01-26 16:55:00
9:15 AM,41.0,39.2,93,29.96,10.0,South,6.9,-,N/A,,Scattered Clouds,180,2013-01-26 17:15:00
9:35 AM,41.0,39.2,93,29.97,10.0,South,6.9,-,N/A,,Mostly Cloudy,180,2013-01-26 17:35:00
9:55 AM,42.8,39.2,87,29.98,10.0,South,8.1,-,N/A,,Scattered Clouds,190,2013-01-26 17:55:00
10:15 AM,42.8,39.2,87,29.98,10.0,South,4.6,-,N/A,,Mostly Cloudy,170,2013-01-26 18:15:00
10:35 AM,42.8,39.2,87,29.98,7.0,South,8.1,-,N/A,,Mostly Cloudy,180,2013-01-26 18:35:00
10:55 AM,44.6,39.2,81,29.98,5.0,SSW,6.9,-,N/A,,Haze,200,2013-01-26 18:55:00
11:15 AM,44.6,39.2,81,29.98,6.0,SSW,4.6,-,N/A,Rain,Light Rain,200,2013-01-26 19:15:00
11:35 AM,41.0,39.2,93,29.99,8.0,SSW,5.8,-,N/A,,Scattered Clouds,200,2013-01-26 19:35:00
11:55 AM,42.8,39.2,87,29.98,5.0,SSW,5.8,-,N/A,,Partly Cloudy,200,2013-01-26 19:55:00
12:15 PM,44.6,39.2,81,29.98,6.0,SSW,9.2,-,0.01,,Haze,200,2013-01-26 20:15:00
12:35 PM,44.6,39.2,81,29.97,7.0,SSW,8.1,-,0.01,,Partly Cloudy,200,2013-01-26 20:35:00
12:55 PM,44.6,39.2,81,29.97,5.0,South,5.8,-,0.01,,Haze,180,2013-01-26 20:55:00
1:15 PM,46.4,39.2,76,29.97,7.0,South,9.2,-,N/A,,Mostly Cloudy,190,2013-01-26 21:15:00
1:55 PM,44.6,39.2,81,29.96,4.0,South,10.4,-,N/A,,Haze,180,2013-01-26 21:55:00
2:15 PM,46.4,39.2,76,29.96,10.0,South,11.5,-,N/A,,Mostly Cloudy,170,2013-01-26 22:15:00
2:35 PM,46.4,39.2,76,29.97,10.0,SW,8.1,-,N/A,,Mostly Cloudy,220,2013-01-26 22:35:00
2:55 PM,42.8,39.2,87,29.97,5.0,SW,5.8,-,0.01,Rain,Light Rain,220,2013-01-26 22:55:00
3:15 PM,42.8,39.2,87,29.98,8.0,SW,3.5,-,0.01,Rain,Light Rain,230,2013-01-26 23:15:00
3:35 PM,42.8,39.2,87,29.98,10.0,SW,4.6,-,0.01,,Mostly Cloudy,220,2013-01-26 23:35:00
3:55 PM,42.8,39.2,87,29.98,7.0,Calm,Calm,-,0.01,,Mostly Cloudy,0,2013-01-26 23:55:00
4:15 PM,41.0,39.2,93,29.99,7.0,SW,3.5,-,N/A,,Overcast,230,2013-01-27 00:15:00
4:55 PM,41.0,39.2,93,29.99,6.0,South,5.8,-,N/A,,Mostly Cloudy,170,2013-01-27 00:55:00
5:15 PM,41.0,37.4,87,30.00,7.0,Calm,Calm,-,N/A,,Mostly Cloudy,0,2013-01-27 01:15:00
5:35 PM,39.2,37.4,93,30.00,7.0,Calm,Calm,-,N/A,,Mostly Cloudy,0,2013-01-27 01:35:00
5:55 PM,37.4,37.4,100,30.01,7.0,Calm,Calm,-,N/A,,Overcast,0,2013-01-27 01:55:00
6:15 PM,37.4,35.6,93,30.01,10.0,Calm,Calm,-,N/A,,Overcast,0,2013-01-27 02:15:00
6:35 PM,37.4,37.4,100,30.02,10.0,Calm,Calm,-,N/A,,Overcast,0,2013-01-27 02:35:00
6:55 PM,37.4,37.4,100,30.02,7.0,Calm,Calm,-,N/A,,Overcast,0,2013-01-27 02:55:00
7:15 PM,37.4,37.4,100,30.03,7.0,SSW,3.5,-,N/A,Rain,Light Rain,210,2013-01-27 03:15:00
7:35 PM,37.4,37.4,100,30.03,7.0,WSW,3.5,-,N/A,,Overcast,250,2013-01-27 03:35:00
7:55 PM,37.4,37.4,100,30.03,10.0,WSW,3.5,-,N/A,,Overcast,240,2013-01-27 03:55:00
8:15 PM,37.4,37.4,100,30.04,8.0,SW,3.5,-,N/A,,Overcast,230,2013-01-27 04:15:00
8:35 PM,37.4,37.4,100,30.04,6.0,SSW,3.5,-,N/A,,Overcast,210,2013-01-27 04:35:00
8:55 PM,37.4,37.4,100,30.04,10.0,SW,3.5,-,N/A,,Overcast,220,2013-01-27 04:55:00
9:15 PM,37.4,37.4,100,30.05,10.0,SW,4.6,-,N/A,,Overcast,230,2013-01-27 05:15:00
9:35 PM,37.4,37.4,100,30.05,10.0,WSW,3.5,-,N/A,,Overcast,240,2013-01-27 05:35:00
9:55 PM,37.4,37.4,100,30.05,10.0,SW,4.6,-,N/A,,Overcast,230,2013-01-27 05:55:00
10:15 PM,37.4,37.4,100,30.06,10.0,WSW,3.5,-,N/A,,Overcast,240,2013-01-27 06:15:00
10:55 PM,39.2,37.4,93,30.07,10.0,SW,4.6,-,N/A,,Overcast,220,2013-01-27 06:55:00
11:15 PM,39.2,37.4,93,30.07,10.0,SSW,4.6,-,N/A,,Overcast,200,2013-01-27 07:15:00
11:35 PM,39.2,37.4,93,30.08,10.0,SW,3.5,-,N/A,,Overcast,230,2013-01-27 07:35:00
11:55 PM,39.2,37.4,93,30.08,10.0,SW,3.5,-,N/A,,Overcast,220,2013-01-27 07:55:00